Overview Statistics Trail Chart Weather Telemetry Raw packets
 

This is the latest recevied weather packets stored in our database for station/object XE3JAC-13. If no packets are shown the sender has not sent any weather packets the latest 10 day(s).

<< 7 8 9 10 11 12 13 >>
Time Temp. Humidity Pressure Rain* Wind** Luminosity Snow
1777410900 28.89° C 28% 1010 hPa 0 mm - - -
1777410000 28.89° C 27% 1010 hPa 0 mm - - -
1777409099 28.89° C 26% 1010 hPa 0 mm - - -
1777408199 28.89° C 24% 1011 hPa 0 mm - - -
1777407299 28.89° C 25% 1011 hPa 0 mm - - -
1777406398 28.89° C 27% 1011 hPa 0 mm - - -
1777405498 28.89° C 26% 1012 hPa 0 mm - - -
1777404598 28.89° C 24% 1013 hPa 0 mm - - -
1777403697 28.33° C 25% 1013 hPa 0 mm - - -
1777402797 28.33° C 27% 1013 hPa 0 mm - - -
1777401896 28.33° C 26% 1013 hPa 0 mm - - -
1777400996 27.78° C 28% 1014 hPa 0 mm - - -
1777400096 27.78° C 27% 1014 hPa 0 mm - - -
1777399195 27.22° C 28% 1014 hPa 0 mm - - -
1777398295 27.22° C 28% 1015 hPa 0 mm - - -
1777397394 27.22° C 27% 1016 hPa 0 mm - - -
1777396494 26.67° C 25% 1016 hPa 0 mm - - -
1777395594 26.67° C 26% 1016 hPa 0 mm - - -
1777394693 25.56° C 24% 1016 hPa 0 mm - - -
1777393793 25.56° C 24% 1016 hPa 0 mm - - -
1777392892 25.56° C 24% 1016 hPa 0 mm - - -
1777324768 28.89° C 29% 1009 hPa 0 mm - - -
1777323868 28.89° C 29% 1009 hPa 0 mm - - -
1777322968 29.44° C 28% 1009 hPa 0 mm - - -
1777248818 20.56° C 45% 1011 hPa 0.25 mm - - -

* Rain latest hour (hover to see other rain measurements)
** Current wind speed in m/s (hover to see current wind gust speed)